This demonstration page uses our WeatherBlox Daily Observations layout. Learn more.

39.92423, -83.80882

Hourly Observations for April 3, 2017

Temp ( °F °C ) Dew Point ( °F °C ) Humidity (%) Winds ( mph kmh ) Pressure ( in mb ) Visibility ( mi km ) Precip ( " mm )
12:56 am 00:56 Clear 49 9.4 37 2.8 64 64 E 10 17 29.94 1014 10 16.0934 0 0
1:56 am 01:56 Clear 50 10 36 2.2 59 59 ESE 12 19 29.91 1013 10 16.0934 0 0
2:56 am 02:56 Clear 49 9.4 36 2.2 61 61 ESE 9 15 29.88 1012 10 16.0934 0 0
3:56 am 03:56 Clear 51 10.6 36 2.2 56 56 ESE 12 19 29.85 1011 10 16.0934 0 0
4:56 am 04:56 Clear 50 10 37 2.8 61 61 ESE 9 15 29.83 1010 10 16.0934 0 0
5:56 am 05:56 Clear 50 10 37 2.8 61 61 ESE 10 17 29.81 1010 10 16.0934 0 0
6:56 am 06:56 Mostly Cloudy with Light Rain 50 10 39 3.9 66 66 ESE 8 13 29.82 1010 10 16.0934 0 0.0254
7:56 am 07:56 Mostly Cloudy 50 10 39 3.9 66 66 ESE 8 13 29.8 1009 10 16.0934 0 0.0254
8:56 am 08:56 Sunny 53 11.7 41 5 64 64 SSE 10 17 29.78 1009 10 16.0934 0 0
9:56 am 09:56 Mostly Sunny 59 15 44 6.7 58 58 SSE 13 20 29.76 1008 10 16.0934 0 0
10:56 am 10:56 Cloudy 60 15.6 46 7.8 60 60 SSE 12 19 29.74 1007 10 16.0934 0 0.0254
11:56 am 11:56 Cloudy 62 16.7 48 8.9 60 60 SE 16 26 29.71 1006 10 16.0934 0 0
12:56 pm 12:56 Partly Cloudy 63 17.2 51 10.6 65 65 SSE 21 33 29.66 1004 10 16.0934 0 0
1:56 pm 13:56 Mostly Cloudy 64 17.8 55 12.8 73 73 S 21 33 29.62 1003 10 16.0934 0 0
2:11 pm 14:11 Cloudy 64 18 55 13 73 73 S 16 26 29.59 1002 10 16.0934 0 0
2:56 pm 14:56 Cloudy 64 17.8 56 13.3 75 75 S 16 26 29.58 1002 10 16.0934 0 0
3:12 pm 15:12 Mostly Cloudy 64 18 55 13 73 73 S 18 30 29.53 1000 10 16.0934 0 0
3:56 pm 15:56 Mostly Cloudy 65 18.3 56 13.3 73 73 SSE 21 33 29.54 1000 10 16.0934 0 0
4:25 pm 16:25 Cloudy 64 18 55 13 73 73 S 17 28 29.53 1000 10 16.0934 0 0
4:56 pm 16:56 Mostly Cloudy 65 18.3 56 13.3 73 73 S 15 24 29.52 1000 10 16.0934 0 0
5:13 pm 17:13 Mostly Cloudy 64 18 55 13 73 73 S 12 19 29.53 1000 10 16.0934 0 0
5:56 pm 17:56 Cloudy 64 17.8 56 13.3 75 75 S 8 13 29.52 1000 10 16.0934 0 0
6:56 pm 18:56 Cloudy with Rain 61 16.1 56 13.3 84 84 SSW 8 13 29.53 1000 10 16.0934 0.02 0.508
7:56 pm 19:56 Cloudy with Light Rain 58 14.4 57 13.9 97 97 SSE 5 7 29.51 999 10 16.0934 0.06 1.524
8:56 pm 20:56 Cloudy 58 14.4 56 13.3 93 93 SSE 8 13 29.49 999 10 16.0934 0 0.0254
9:56 pm 21:56 Cloudy 58 14.4 56 13.3 93 93 SSE 9 15 29.49 999 10 16.0934 0 0
10:56 pm 22:56 Cloudy 58 14.4 56 13.3 93 93 SSE 9 15 29.46 998 10 16.0934 0 0
11:56 pm 23:56 Mostly Clear 58 14.4 56 13.3 93 93 S 12 19 29.44 997 10 16.0934 0.01 0.254

Powered by AerisWeather